Temp
-7 -7 -7 -7 -7 -7 -7 -6 -7 -7 -7 -7 -7 -7 -6 -7 -7 -7 -7 -7 -7 -6 -6 -6 -6 -6 -6 -6 -6 -6 -6 -7 -7 -7 -7 -7 -7 -7 -7 -7 -7 -7
-6 -6 -6 -6 -7 -7 -7 -7 -7 -7 -7 -7 -7 -7 -7 -7 -7 -7 -7 -7 -6 -6 -6 -6 -6 -6 -6 -6 -6 -6 -6 -6 -6 -7 -7 -7 -7 -7 -7 -7 -7 -7
-6 -6 -6 -7 -6 -6 -7 -7 -7 -7 -7 -7 -7 -7 -7 -7 -7 -7 -7 -7 -7 -6 -6 -6 -6 -6 -6 -6 -6 -6 -6 -6 -6 -6 -7 -7 -7 -7 -7 -7 -7 -7
-6 -6 -7 -7 -6 -6 -6 -7 -7 -7 -7 -7 -7 -7 -7 -7 -7 -7 -7 -7 -7 -7 -6 -6 -6 -6 -6 -6 -6 -6 -6 -6 -6 -6 -6 -7 -7 -7 -7 -7 -7 -7
-6 -7 -7 -7 -7 -6 -6 -7 -7 -7 -7 -7 -7 -7 -7 -7 -7 -7 -7 -7 -7 -7 -7 -7 -6 -6 -6 -6 -6 -6 -6 -6 -6 -6 -6 -6 -7 -7 -7 -7 -7 -7
-6 -7 -7 -7 -7 -7 -7 -7 -7 -7 -7 -7 -7 -7 -7 -7 -7 -7 -7 -7 -7 -7 -7 -7 -7 -7 -6 -6 -6 -6 -6 -6 -6 -6 -6 -6 -6 -6 -6 -7 -6 -6
-7 -7 -7 -7 -7 -7 -7 -7 -6 -6 -6 -7 -7 -7 -7 -7 -7 -7 -7 -7 -7 -7 -7 -7 -7 -7 -7 -7 -7 -6 -6 -6 -6 -6 -6 -6 -6 -6 -6 -6 -6 -6
-7 -7 -7 -7 -7 -7 -7 -7 -6 -6 -6 -6 -6 -7 -7 -6 -6 -6 -7 -7 -7 -7 -7 -7 -7 -7 -7 -7 -7 -7 -7 -7 -6 -6 -6 -6 -6 -6 -6 -6 -6 -6
-7 -7 -7 -7 -7 -7 -7 -7 -6 -6 -6 -6 -6 -6 -6 -6 -6 -6 -6 -7 -7 -7 -7 -7 -7 -7 -7 -7 -7 -7 -7 -7 -7 -7 -7 -6 -6 -6 -6 -6 -6 -6
-7 -7 -7 -7 -7 -6 -6 -6 -7 -7 -6 -6 -6 -6 -6 -6 -6 -6 -6 -6 -6 -7 -7 -7 -7 -7 -7 -7 -7 -7 -7 -7 -7 -7 -7 -7 -7 -7 -6 -6 -6 -6
-7 -7 -7 -7 -7 -6 -6 -6 -6 -7 -6 -6 -6 -6 -6 -6 -6 -6 -6 -6 -6 -6 -6 -7 -7 -7 -7 -7 -7 -7 -7 -7 -7 -7 -7 -7 -7 -7 -7 -6 -6 -6
-7 -7 -7 -7 -7 -7 -7 -6 -6 -7 -6 -6 -6 -6 -6 -6 -6 -6 -6 -6 -6 -6 -6 -6 -6 -7 -7 -7 -7 -7 -7 -7 -7 -7 -7 -7 -7 -7 -7 -6 -6 -6
-6 -7 -7 -7 -7 -7 -7 -7 -6 -7 -6 -6 -6 -6 -6 -6 -6 -6 -6 -6 -6 -6 -6 -6 -6 -6 -7 -7 -7 -7 -7 -7 -7 -7 -7 -7 -7 -7 -7 -7 -7 -6
-7 -7 -7 -7 -7 -7 -7 -7 -7 -7 -7 -7 -6 -6 -6 -6 -6 -6 -6 -6 -6 -6 -6 -6 -6 -6 -6 -6 -6 -6 -6 -6 -6 -7 -7 -7 -7 -7 -7 -7 -7 -7
-7 -7 -7 -7 -7 -7 -7 -7 -7 -7 -7 -7 -6 -6 -6 -6 -6 -6 -6 -6 -6 -6 -6 -6 -6 -6 -6 -6 -6 -6 -6 -6 -6 -6 -7 -7 -6 -6 -7 -7 -7 -6
-7 -7 -7 -7 -7 -7 -7 -7 -7 -7 -7 -6 -6 -6 -6 -6 -6 -6 -6 -6 -6 -6 -6 -6 -6 -6 -6 -6 -6 -6 -6 -6 -6 -6 -6 -6 -6 -6 -6 -6 -6 -6
-8 -8 -7 -7 -7 -7 -7 -7 -7 -7 -7 -7 -6 -6 -6 -6 -6 -5 -5 -5 -5 -6 -6 -6 -6 -6 -6 -6 -6 -6 -6 -6 -6 -6 -6 -6 -6 -6 -6 -6 -6 -6
-8 -8 -7 -7 -7 -7 -7 -7 -7 -7 -7 -7 -6 -6 -6 -6 -6 -6 -5 -5 -5 -5 -6 -6 -6 -6 -6 -6 -6 -6 -6 -6 -6 -6 -6 -7 -7 -7 -7 -7 -7 -6
-8 -7 -7 -7 -7 -7 -7 -7 -7 -7 -7 -7 -6 -6 -6 -6 -6 -6 -6 -6 -6 -5 -6 -6 -6 -6 -6 -6 -6 -6 -6 -7 -7 -6 -6 -6 -7 -7 -7 -7 -7 -7
-8 -7 -7 -7 -7 -7 -7 -7 -7 -7 -7 -7 -7 -6 -6 -6 -6 -6 -6 -6 -6 -6 -6 -6 -6 -6 -6 -6 -7 -7 -7 -7 -7 -7 -6 -6 -7 -7 -7 -7 -7 -7
-7 -7 -7 -7 -7 -7 -7 -7 -7 -7 -7 -7 -6 -6 -6 -6 -6 -6 -6 -6 -6 -6 -6 -6 -6 -6 -6 -6 -6 -6 -6 -6 -7 -7 -7 -7 -7 -7 -7 -7 -7 -7
-7 -7 -7 -7 -7 -7 -7 -7 -7 -7 -7 -6 -6 -6 -6 -6 -6 -6 -6 -6 -6 -7 -7 -6 -6 -6 -6 -6 -7 -7 -6 -6 -7 -7 -7 -7 -7 -7 -7 -7 -7 -7
-7 -7 -7 -7 -7 -7 -7 -7 -7 -7 -7 -6 -6 -6 -6 -6 -6 -6 -7 -7 -7 -7 -7 -7 -7 -7 -7 -7 -7 -7 -7 -6 -6 -7 -7 -7 -7 -7 -6 -6 -6 -7
-8 -7 -7 -7 -7 -7 -7 -7 -7 -7 -7 -6 -6 -6 -6 -6 -6 -7 -7 -7 -7 -7 -7 -7 -7 -7 -7 -7 -7 -7 -7 -6 -6 -6 -7 -7 -7 -6 -6 -6 -6 -6
-8 -8 -7 -7 -7 -7 -7 -7 -7 -7 -6 -6 -7 -7 -7 -7 -6 -6 -6 -7 -7 -7 -7 -7 -7 -7 -7 -7 -7 -7 -7 -6 -6 -6 -6 -7 -7 -6 -6 -6 -6 -6
-8 -8 -8 -7 -7 -7 -8 -8 -7 -7 -6 -6 -6 -7 -7 -7 -7 -7 -7 -7 -7 -7 -7 -7 -7 -7 -7 -7 -7 -7 -7 -6 -6 -6 -6 -6 -6 -6 -6 -6 -6 -6
Height
5938 5938 5939 5940 5940 5940 5941 5941 5941 5942 5942 5942 5943 5943 5944 5944 5945 5945 5946 5946 5947 5947 5948 5948 5948 5948 5949 5949 5949 5949 5950 5950 5950 5950 5950 5950 5950 5949 5950 5950 5950 5950
5938 5938 5939 5940 5940 5941 5941 5941 5941 5941 5942 5943 5943 5943 5944 5944 5945 5945 5946 5947 5947 5947 5948 5948 5948 5948 5949 5949 5949 5949 5950 5950 5950 5950 5950 5950 5950 5950 5950 5950 5950 5950
5937 5937 5938 5939 5939 5940 5941 5941 5941 5941 5942 5942 5943 5943 5944 5945 5945 5945 5946 5947 5947 5947 5948 5948 5948 5948 5948 5949 5949 5949 5949 5949 5950 5950 5950 5950 5950 5950 5950 5950 5950 5950
5936 5936 5937 5938 5938 5939 5940 5941 5941 5941 5942 5942 5942 5943 5944 5944 5945 5945 5946 5946 5947 5947 5947 5948 5948 5948 5948 5948 5948 5949 5949 5949 5949 5949 5949 5949 5949 5950 5950 5950 5950 5950
5935 5935 5936 5937 5937 5938 5939 5939 5940 5940 5941 5941 5942 5942 5943 5944 5944 5945 5945 5946 5946 5947 5947 5947 5947 5948 5948 5948 5948 5948 5948 5949 5949 5949 5949 5949 5950 5950 5950 5950 5950 5950
5934 5934 5935 5936 5936 5937 5937 5938 5939 5939 5940 5940 5941 5941 5942 5943 5943 5944 5944 5945 5946 5946 5946 5946 5947 5947 5947 5948 5948 5948 5948 5948 5948 5949 5949 5949 5950 5950 5950 5949 5949 5949
5932 5933 5934 5934 5935 5936 5936 5937 5937 5938 5938 5939 5940 5940 5941 5942 5942 5943 5944 5944 5945 5945 5945 5946 5946 5946 5946 5947 5947 5947 5948 5948 5948 5948 5948 5949 5949 5949 5949 5948 5948 5947
5929 5930 5931 5932 5933 5934 5935 5935 5936 5936 5937 5938 5938 5939 5940 5941 5941 5942 5942 5943 5944 5944 5944 5945 5945 5945 5945 5946 5946 5947 5947 5947 5948 5948 5948 5948 5948 5947 5947 5947 5947 5947
5927 5928 5929 5930 5931 5932 5933 5934 5935 5935 5936 5937 5937 5938 5939 5939 5940 5940 5941 5941 5942 5942 5943 5943 5943 5944 5944 5945 5945 5946 5946 5946 5947 5947 5947 5947 5947 5947 5946 5946 5946 5946
5924 5925 5926 5927 5928 5929 5930 5931 5933 5934 5935 5936 5936 5937 5938 5938 5938 5939 5939 5940 5940 5940 5941 5941 5941 5942 5942 5943 5943 5944 5945 5945 5945 5945 5945 5946 5946 5946 5945 5945 5945 5945
5922 5923 5924 5924 5925 5926 5928 5929 5931 5932 5933 5934 5935 5935 5936 5936 5937 5937 5938 5938 5938 5938 5939 5939 5939 5939 5940 5940 5941 5942 5942 5943 5943 5943 5944 5944 5944 5944 5944 5944 5944 5944
5919 5920 5921 5922 5923 5924 5926 5927 5929 5930 5931 5932 5932 5933 5934 5934 5935 5935 5936 5936 5937 5937 5937 5937 5937 5938 5938 5938 5938 5939 5940 5941 5941 5941 5942 5942 5942 5943 5943 5943 5943 5943
5917 5918 5919 5920 5921 5922 5924 5925 5926 5928 5929 5929 5930 5930 5931 5932 5932 5933 5934 5935 5935 5936 5936 5936 5936 5936 5936 5936 5936 5937 5938 5939 5939 5940 5940 5940 5941 5941 5941 5942 5942 5941
5916 5917 5917 5918 5919 5920 5921 5923 5924 5925 5926 5926 5927 5928 5928 5929 5930 5931 5931 5933 5933 5934 5935 5935 5936 5935 5934 5934 5935 5935 5936 5937 5937 5938 5938 5938 5939 5939 5940 5940 5939 5939
5914 5916 5916 5917 5917 5918 5919 5920 5921 5922 5923 5923 5924 5925 5926 5926 5927 5928 5929 5930 5931 5932 5933 5934 5934 5933 5933 5933 5933 5933 5934 5935 5936 5936 5937 5936 5936 5937 5937 5937 5937 5937
5911 5913 5914 5915 5916 5916 5916 5917 5918 5919 5920 5921 5921 5922 5923 5924 5924 5925 5926 5927 5928 5930 5931 5931 5931 5931 5931 5931 5931 5931 5932 5933 5934 5934 5935 5934 5934 5934 5935 5934 5935 5935
5907 5909 5911 5913 5914 5914 5915 5916 5917 5917 5918 5918 5919 5920 5921 5922 5922 5923 5924 5925 5926 5927 5928 5928 5929 5929 5929 5929 5929 5930 5930 5930 5931 5932 5932 5933 5932 5932 5932 5932 5932 5932
5905 5906 5907 5909 5911 5912 5913 5913 5914 5915 5916 5916 5917 5918 5918 5919 5920 5921 5922 5923 5923 5924 5925 5925 5926 5926 5927 5927 5928 5928 5928 5928 5928 5929 5929 5930 5930 5929 5929 5929 5929 5929
5902 5903 5904 5906 5908 5909 5910 5910 5911 5913 5914 5915 5915 5916 5916 5917 5918 5919 5920 5920 5921 5921 5922 5922 5923 5924 5924 5925 5925 5926 5926 5926 5926 5926 5926 5927 5927 5927 5926 5926 5926 5926
5899 5900 5902 5904 5905 5906 5906 5907 5909 5911 5912 5913 5913 5914 5914 5915 5916 5916 5917 5918 5919 5919 5919 5920 5920 5921 5921 5922 5923 5923 5923 5924 5924 5924 5924 5924 5924 5924 5924 5924 5924 5923
5896 5898 5899 5901 5902 5903 5904 5905 5906 5907 5908 5909 5910 5911 5911 5912 5912 5913 5914 5915 5915 5916 5916 5917 5917 5918 5919 5919 5919 5920 5920 5921 5921 5920 5921 5921 5921 5921 5921 5920 5920 5920
5894 5895 5897 5898 5899 5900 5902 5903 5904 5904 5904 5906 5907 5908 5909 5909 5909 5910 5911 5912 5912 5912 5913 5913 5914 5915 5915 5916 5916 5916 5916 5916 5916 5916 5916 5917 5918 5917 5917 5916 5915 5915
5891 5893 5894 5896 5897 5898 5899 5900 5901 5901 5901 5903 5904 5905 5905 5905 5906 5908 5908 5907 5907 5908 5909 5910 5910 5911 5912 5912 5912 5912 5912 5912 5912 5913 5913 5913 5913 5913 5912 5912 5912 5911
5888 5890 5892 5893 5894 5895 5896 5896 5897 5898 5898 5899 5900 5900 5900 5900 5901 5903 5903 5903 5903 5904 5904 5905 5905 5906 5907 5907 5907 5908 5907 5908 5909 5909 5909 5909 5909 5909 5908 5908 5907 5907
5885 5887 5888 5889 5890 5891 5892 5892 5893 5894 5895 5896 5896 5896 5896 5896 5895 5896 5897 5897 5898 5899 5899 5900 5900 5901 5902 5902 5903 5903 5903 5903 5904 5904 5904 5904 5904 5904 5903 5903 5903 5902
5882 5884 5885 5886 5887 5888 5888 5888 5889 5890 5892 5893 5893 5893 5892 5891 5891 5890 5891 5892 5893 5893 5894 5895 5895 5896 5897 5898 5898 5899 5899 5899 5899 5899 5899 5899 5899 5899 5898 5898 5898 5897
Wind_Speed
12 12 11 11 10 9 7 6 5 5 5 5 4 4 3 3 3 3 2 2 2 3 3 5 6 6 6 6 6 6 7 7 7 7 7 7 7 7 7 7 7 6
12 12 11 11 10 9 8 7 6 6 5 5 4 3 4 4 4 4 3 3 3 3 3 4 4 5 5 6 7 7 7 7 7 7 7 7 7 8 7 7 6 6
12 12 11 11 11 10 9 8 7 7 6 6 5 4 5 5 5 5 5 5 4 4 4 4 4 5 5 6 6 6 7 7 7 7 7 7 8 8 8 7 7 7
12 12 11 11 11 10 9 9 8 8 8 7 6 6 6 6 6 6 6 6 6 6 6 5 5 5 5 5 6 6 6 6 6 7 7 7 7 8 7 7 7 7
13 12 12 11 11 10 10 9 9 9 9 8 8 8 8 8 8 8 8 7 7 7 7 6 6 6 6 6 6 6 6 6 5 6 6 7 7 7 6 7 7 7
13 13 12 12 12 11 11 10 10 10 10 10 10 10 10 10 10 10 9 9 8 8 8 7 7 7 7 7 6 6 7 6 6 6 6 6 6 6 6 7 7 7
15 14 14 13 13 12 12 12 11 11 11 11 11 11 11 11 11 11 11 11 10 10 9 9 9 9 8 8 8 8 8 8 8 7 7 6 6 6 6 6 7 7
18 16 16 15 15 14 13 13 12 12 11 11 11 11 12 12 12 12 12 12 12 12 11 11 11 10 10 10 10 9 9 9 9 8 8 7 7 7 6 6 7 7
20 19 18 18 17 16 16 15 14 14 13 12 12 11 11 11 11 12 12 13 13 13 13 13 13 13 12 11 11 10 10 10 10 9 8 9 8 8 7 8 8 8
23 22 21 21 20 19 19 18 17 16 16 15 14 13 13 12 12 12 12 12 13 13 14 14 15 14 14 14 13 12 12 11 11 10 10 10 9 9 9 9 9 9
24 24 24 23 23 22 20 19 18 18 17 17 16 16 15 15 14 14 13 13 12 12 13 14 15 15 16 15 15 14 14 14 13 13 12 11 11 11 11 11 11 11
26 25 25 25 24 22 21 20 19 18 17 17 17 17 17 17 17 16 16 16 15 14 13 14 14 15 16 16 17 17 16 16 16 15 14 14 14 14 13 13 13 13
27 26 26 25 24 22 21 19 18 17 17 17 18 18 18 18 18 18 18 18 18 17 16 16 15 15 16 17 18 18 17 17 17 16 16 16 16 16 15 15 15 15
26 26 26 25 24 23 21 20 19 18 18 18 18 18 18 18 18 19 20 20 19 19 18 18 18 18 18 18 18 18 17 18 18 17 17 18 18 17 17 17 18 18
24 25 25 24 23 23 22 21 21 20 19 19 19 19 18 18 19 20 20 20 20 19 19 19 19 20 20 20 19 19 18 18 17 17 17 18 18 18 18 19 20 21
24 23 24 24 23 22 22 21 20 20 20 19 19 18 18 18 18 19 19 20 20 20 19 20 20 21 21 21 20 20 20 19 18 17 17 18 18 18 19 20 21 21
25 24 23 22 22 21 20 19 19 19 19 19 18 17 17 17 18 18 19 19 19 19 19 20 21 21 21 20 19 19 18 18 18 17 17 18 19 20 20 21 21 22
27 25 23 23 22 21 20 19 19 19 19 19 18 17 17 17 17 17 18 18 19 19 19 20 20 20 20 20 18 17 16 17 17 17 17 18 19 20 21 22 23 23
30 27 25 25 24 23 22 21 20 19 19 19 19 18 17 17 16 16 17 18 19 19 19 20 20 21 21 20 20 19 18 18 19 19 20 20 21 22 22 23 25 26
30 28 26 25 25 25 25 23 22 20 19 20 20 19 19 18 17 17 17 18 20 20 21 21 21 22 22 22 22 22 23 22 22 21 22 22 23 24 25 26 26 27
29 28 26 26 26 26 27 25 24 23 22 23 23 23 22 22 21 20 20 20 21 22 23 24 24 24 24 25 26 26 26 25 24 25 26 26 26 27 27 28 28 28
31 29 27 26 26 26 26 26 26 26 26 27 27 27 26 26 25 25 25 25 25 25 26 27 28 28 28 28 28 28 29 28 27 28 30 31 30 30 31 32 32 32
29 28 26 24 24 24 25 26 26 27 28 29 30 30 30 30 30 28 29 30 29 29 30 30 30 30 30 30 30 30 31 30 29 30 32 34 34 34 34 34 35 35
22 23 23 23 23 23 25 27 27 27 27 28 29 30 32 33 33 31 32 33 32 32 34 34 33 32 32 33 34 33 33 32 32 33 35 36 37 37 37 37 37 37
20 22 23 23 24 24 25 26 27 28 28 28 28 29 30 33 34 33 34 35 35 36 37 37 36 35 34 35 35 35 36 36 37 37 38 38 38 39 39 39 39 40
21 22 23 24 23 22 22 23 24 26 28 27 27 27 26 27 29 31 32 34 35 37 39 39 38 37 36 36 36 36 37 38 39 41 41 40 39 39 39 39 40 42
Wind_Direction
187 186 185 188 187 183 183 184 179 179 186 188 181 181 186 183 180 180 190 208 209 202 184 179 185 185 181 185 189 187 185 184 186 192 198 205 213 219 225 230 237 247
189 189 189 192 192 188 188 189 188 188 194 198 198 204 208 202 197 194 211 228 226 225 219 202 197 197 195 197 202 202 198 196 197 201 206 212 219 225 231 237 244 251
193 192 192 195 198 196 194 194 194 194 198 203 206 215 222 220 215 208 216 230 232 229 229 223 218 215 213 212 213 211 206 204 204 205 210 216 224 231 233 235 239 248
200 198 198 201 203 202 201 200 201 202 204 206 205 211 221 227 229 225 223 228 232 233 231 231 233 232 229 227 226 226 222 219 215 211 213 219 227 233 234 233 237 243
208 207 206 208 210 211 210 207 208 212 214 212 210 214 221 225 229 233 234 235 236 235 233 233 237 239 241 239 238 241 243 245 243 235 230 230 235 240 238 237 239 241
214 214 214 215 217 217 218 216 216 219 221 220 219 221 226 229 231 234 237 240 242 241 239 240 243 245 248 249 247 248 252 256 258 256 254 251 249 251 247 243 244 243
217 218 218 220 221 222 224 225 225 225 225 225 226 226 229 231 232 233 234 237 240 242 243 244 247 249 252 255 255 254 255 257 260 261 264 264 260 259 256 252 251 252
220 219 219 222 225 225 228 231 232 233 230 229 231 232 233 234 235 235 234 235 238 240 243 245 248 250 252 254 256 257 259 260 261 261 263 264 261 261 263 264 262 263
223 223 221 223 225 227 229 231 233 235 235 235 235 238 240 240 239 238 236 237 239 241 244 246 248 248 249 251 253 256 258 259 259 259 261 263 261 261 263 262 260 260
224 226 225 225 226 227 230 232 234 236 238 239 238 240 244 245 245 244 241 240 239 240 243 246 247 247 248 249 251 254 255 254 255 256 258 263 265 262 258 254 253 255
225 227 228 228 228 228 230 232 235 238 241 242 243 242 243 246 249 250 250 248 245 244 245 246 247 248 247 249 250 251 252 252 253 254 255 258 259 257 255 255 255 255
226 227 229 230 231 231 232 233 236 239 243 245 246 247 247 247 249 252 254 256 255 254 253 253 253 252 251 250 251 251 251 251 251 253 254 255 255 255 256 258 259 259
228 228 230 232 234 235 236 236 237 240 242 245 247 249 251 252 253 253 255 256 257 258 258 258 258 257 255 253 252 253 254 254 253 253 253 253 254 256 258 259 261 262
233 232 232 233 235 236 236 236 237 237 238 241 244 247 250 252 253 254 255 256 256 257 258 259 260 259 258 257 258 258 258 258 258 256 255 255 256 257 258 259 260 262
233 234 233 232 231 231 231 231 231 233 233 235 238 241 244 247 250 252 252 253 254 255 257 258 257 256 256 257 259 260 260 260 260 259 259 260 262 260 258 258 260 263
226 228 232 233 231 231 231 230 230 232 234 235 237 240 243 246 250 252 252 251 252 253 254 255 255 255 255 256 257 259 260 261 261 262 261 262 264 264 263 263 264 265
224 221 224 230 233 233 232 231 231 234 236 238 239 241 244 247 251 255 257 257 255 253 253 254 255 256 257 257 257 259 262 265 268 269 267 266 267 269 269 270 270 269
227 223 222 226 231 235 236 235 235 236 239 240 240 239 241 245 250 254 259 261 260 257 254 252 253 256 258 259 258 258 262 268 273 274 273 270 271 272 274 275 276 275
227 228 227 228 231 235 239 241 241 240 243 245 246 245 244 244 248 252 257 260 261 259 255 252 251 253 254 255 256 256 258 261 266 271 273 273 272 274 276 277 278 278
224 228 231 233 234 238 241 244 246 247 248 250 251 251 250 249 249 253 258 260 261 260 257 253 250 249 250 252 254 256 258 259 262 267 271 273 272 272 273 276 278 279
228 232 237 238 237 239 242 245 248 251 254 255 254 253 253 253 253 256 259 261 261 260 259 256 253 252 253 254 256 259 261 263 264 267 271 273 273 272 272 273 275 277
235 239 242 240 237 240 244 247 250 254 259 260 259 257 256 257 257 258 260 261 261 260 259 258 257 257 258 259 261 264 265 265 264 265 269 272 274 275 275 274 274 275
238 240 241 240 242 245 249 252 255 257 259 261 261 260 259 258 258 257 256 258 259 260 260 261 260 259 260 260 261 261 262 263 263 264 268 271 274 276 277 276 275 274
241 241 243 247 251 252 254 258 260 260 261 261 261 262 261 261 262 260 257 256 258 259 260 260 260 260 260 259 260 261 262 263 264 265 268 271 274 275 275 275 275 273
246 245 247 249 252 252 253 256 259 261 263 264 264 265 265 265 265 263 260 258 258 258 258 258 259 260 260 261 262 264 265 266 268 269 270 272 274 274 273 273 272 271
246 245 245 245 249 253 253 253 256 260 263 265 266 266 266 266 266 264 261 260 259 257 257 256 257 259 261 263 265 267 269 270 271 271 272 273 273 273 272 271 268 266